status,avgMeasuredTime,avgSpeed,extID,medianMeasuredTime,TIMESTAMP,vehicleCount,_id,REPORT_ID
OK,130,58,953,130,2014-08-01T08:00:00,0,20747008,210146
OK,130,58,953,130,2014-08-01T08:05:00,0,20747457,210146
OK,130,58,953,130,2014-08-01T08:10:00,0,20747830,210146
OK,218,35,953,218,2014-08-01T08:15:00,1,20748279,210146
OK,218,35,953,218,2014-08-01T08:20:00,0,20748728,210146
OK,218,35,953,218,2014-08-01T08:25:00,0,20749177,210146
OK,208,36,953,208,2014-08-01T08:30:00,1,20749626,210146
OK,208,36,953,208,2014-08-01T08:35:00,1,20750075,210146
OK,208,36,953,208,2014-08-01T08:40:00,0,20750524,210146
OK,206,37,953,206,2014-08-01T08:45:00,1,20750973,210146
OK,206,37,953,206,2014-08-01T08:50:00,1,20751422,210146
OK,206,37,953,206,2014-08-01T08:55:00,0,20751871,210146
OK,206,37,953,206,2014-08-01T09:00:00,0,20752320,210146
OK,206,37,953,206,2014-08-01T09:05:00,0,20752769,210146
OK,206,37,953,206,2014-08-01T09:10:00,0,20753218,210146
OK,206,37,953,206,2014-08-01T09:20:00,0,20754116,210146
OK,206,37,953,206,2014-08-01T09:25:00,0,20754565,210146
OK,206,37,953,206,2014-08-01T09:30:00,0,20755014,210146
OK,206,37,953,206,2014-08-01T09:35:00,0,20755463,210146
OK,206,37,953,206,2014-08-01T09:40:00,0,20755912,210146
OK,173,44,953,173,2014-08-01T09:45:00,1,20756361,210146
OK,173,44,953,173,2014-08-01T09:50:00,1,20756810,210146
OK,173,44,953,173,2014-08-01T09:55:00,0,20757259,210146
OK,173,44,953,173,2014-08-01T10:00:00,0,20757708,210146
OK,173,44,953,173,2014-08-01T10:05:00,0,20758157,210146
OK,159,48,953,159,2014-08-01T10:15:00,1,20759055,210146
OK,204,37,953,204,2014-08-01T10:20:00,1,20759504,210146
OK,204,37,953,204,2014-08-01T10:25:00,1,20759953,210146
OK,204,37,953,204,2014-08-01T10:30:00,0,20760402,210146
OK,204,37,953,204,2014-08-01T10:35:00,0,20760851,210146
OK,204,37,953,204,2014-08-01T10:40:00,0,20761300,210146
OK,204,37,953,204,2014-08-01T10:45:00,0,20761749,210146
OK,204,37,953,204,2014-08-01T10:50:00,0,20762198,210146
OK,204,37,953,204,2014-08-01T10:55:00,0,20762647,210146
OK,204,37,953,204,2014-08-01T11:00:00,0,20763096,210146
OK,204,37,953,204,2014-08-01T11:05:00,0,20763545,210146
OK,204,37,953,204,2014-08-01T11:10:00,0,20763994,210146
OK,148,51,953,148,2014-08-01T11:15:00,1,20764442,210146
OK,148,51,953,148,2014-08-01T11:20:00,0,20764891,210146
OK,148,51,953,148,2014-08-01T11:25:00,0,20765340,210146
OK,148,51,953,148,2014-08-01T11:30:00,0,20765789,210146
OK,148,51,953,148,2014-08-01T11:35:00,0,20766238,210146
OK,148,51,953,148,2014-08-01T11:40:00,0,20766687,210146
OK,148,51,953,148,2014-08-01T11:45:00,0,20767136,210146
OK,148,51,953,148,2014-08-01T11:50:00,0,20767585,210146
OK,148,51,953,148,2014-08-01T11:55:00,0,20768034,210146
OK,148,51,953,148,2014-08-01T12:00:00,0,20768483,210146
OK,358,21,953,358,2014-08-01T12:05:00,1,20768932,210146
OK,358,21,953,358,2014-08-01T12:10:00,1,20769381,210146
OK,358,21,953,358,2014-08-01T12:15:00,0,20769830,210146
OK,358,21,953,358,2014-08-01T12:20:00,0,20770279,210146
OK,358,21,953,358,2014-08-01T12:25:00,0,20770728,210146
OK,190,40,953,190,2014-08-01T12:30:00,1,20771177,210146
OK,171,44,953,171,2014-08-01T12:35:00,1,20771626,210146
OK,171,44,953,171,2014-08-01T12:40:00,0,20772075,210146
OK,249,30,953,249,2014-08-01T12:45:00,1,20772524,210146
OK,249,30,953,249,2014-08-01T12:50:00,1,20772973,210146
OK,249,30,953,249,2014-08-01T12:55:00,0,20773422,210146
OK,249,30,953,249,2014-08-01T13:00:00,0,20773871,210146
OK,249,30,953,249,2014-08-01T13:05:00,0,20774320,210146
OK,249,30,953,249,2014-08-01T13:10:00,0,20774769,210146
OK,201,38,953,201,2014-08-01T13:15:00,3,20775218,210146
OK,195,39,953,195,2014-08-01T13:20:00,1,20775667,210146
OK,199,38,953,199,2014-08-01T13:25:00,2,20776116,210146
OK,200,38,953,200,2014-08-01T13:30:00,2,20776565,210146
OK,199,38,953,199,2014-08-01T13:35:00,0,20777014,210146
OK,199,38,953,199,2014-08-01T13:40:00,0,20777463,210146
OK,199,38,953,199,2014-08-01T13:45:00,0,20777912,210146
OK,307,24,953,307,2014-08-01T13:50:00,1,20778361,210146
OK,164,46,953,164,2014-08-01T14:00:00,1,20779259,210146
OK,164,46,953,164,2014-08-01T14:05:00,0,20779708,210146
OK,164,46,953,164,2014-08-01T14:10:00,0,20780157,210146
OK,336,22,953,336,2014-08-01T14:15:00,1,20780606,210146
OK,336,22,953,336,2014-08-01T14:20:00,1,20781055,210146
OK,336,22,953,336,2014-08-01T14:25:00,0,20781504,210146
OK,336,22,953,336,2014-08-01T14:30:00,0,20781953,210146
OK,227,33,953,227,2014-08-01T14:35:00,1,20782402,210146
OK,227,33,953,227,2014-08-01T14:40:00,1,20782851,210146
OK,252,30,953,252,2014-08-01T14:45:00,1,20783300,210146
OK,252,30,953,252,2014-08-01T14:50:00,1,20783749,210146
OK,252,30,953,252,2014-08-01T14:55:00,0,20784198,210146
OK,252,30,953,252,2014-08-01T15:00:00,0,20784647,210146
OK,269,28,953,269,2014-08-01T15:05:00,2,20785096,210146
OK,267,28,953,267,2014-08-01T15:10:00,2,20785545,210146
OK,267,28,953,267,2014-08-01T15:15:00,0,20785994,210146
OK,267,28,953,267,2014-08-01T15:20:00,0,20786443,210146
OK,267,28,953,267,2014-08-01T15:25:00,0,20786892,210146
OK,267,28,953,267,2014-08-01T15:30:00,0,20787341,210146
OK,187,40,953,187,2014-08-01T15:35:00,1,20787790,210146
OK,187,40,953,187,2014-08-01T15:40:00,0,20788239,210146
OK,187,40,953,187,2014-08-01T15:45:00,0,20788688,210146
OK,187,40,953,187,2014-08-01T15:50:00,0,20789137,210146
OK,187,40,953,187,2014-08-01T15:55:00,1,20789586,210146
OK,187,40,953,187,2014-08-01T16:00:00,1,20790035,210146
OK,187,40,953,187,2014-08-01T16:05:00,0,20790484,210146
OK,187,40,953,187,2014-08-01T16:10:00,0,20790933,210146
OK,187,40,953,187,2014-08-01T16:15:00,0,20791382,210146
OK,187,40,953,187,2014-08-01T16:20:00,0,20791831,210146
OK,187,40,953,187,2014-08-01T16:25:00,0,20792280,210146
OK,187,40,953,187,2014-08-01T16:30:00,0,20792729,210146
OK,187,40,953,187,2014-08-01T16:35:00,0,20793178,210146
OK,187,40,953,187,2014-08-01T16:40:00,0,20793627,210146
OK,187,40,953,187,2014-08-01T16:45:00,0,20794076,210146
OK,187,40,953,187,2014-08-01T16:50:00,0,20794525,210146
OK,187,40,953,187,2014-08-01T16:55:00,0,20794974,210146
OK,187,40,953,187,2014-08-01T17:00:00,0,20795423,210146
OK,187,40,953,187,2014-08-01T17:05:00,0,20795872,210146
OK,187,40,953,187,2014-08-01T17:10:00,0,20796321,210146
OK,187,40,953,187,2014-08-01T17:15:00,0,20796770,210146
OK,187,40,953,187,2014-08-01T17:20:00,0,20797219,210146
OK,187,40,953,187,2014-08-01T17:25:00,0,20797668,210146
OK,172,44,953,172,2014-08-01T17:30:00,1,20798117,210146
OK,171,44,953,171,2014-08-01T17:35:00,0,20798566,210146
OK,171,44,953,171,2014-08-01T17:40:00,0,20799015,210146
OK,171,44,953,171,2014-08-01T17:45:00,0,20799464,210146
OK,171,44,953,171,2014-08-01T17:50:00,0,20799913,210146
OK,171,44,953,171,2014-08-01T17:55:00,0,20800362,210146
OK,171,44,953,171,2014-08-01T18:00:00,0,20800811,210146
OK,171,44,953,171,2014-08-01T18:05:00,0,20801260,210146
OK,171,44,953,171,2014-08-01T18:10:00,0,20801709,210146
OK,171,44,953,171,2014-08-01T18:15:00,0,20802158,210146
OK,171,44,953,171,2014-08-01T18:20:00,0,20802607,210146
OK,171,44,953,171,2014-08-01T18:25:00,0,20803056,210146
OK,171,44,953,171,2014-08-01T18:30:00,0,20803505,210146
OK,171,44,953,171,2014-08-01T18:35:00,0,20803954,210146
OK,171,44,953,171,2014-08-01T18:40:00,0,20804403,210146
OK,171,44,953,171,2014-08-01T18:45:00,0,20804852,210146
OK,171,44,953,171,2014-08-01T18:50:00,0,20805301,210146
OK,177,43,953,177,2014-08-01T18:55:00,1,20805750,210146
OK,177,43,953,177,2014-08-01T19:00:00,1,20806199,210146
OK,177,43,953,177,2014-08-01T19:05:00,0,20806648,210146
OK,177,43,953,177,2014-08-01T19:10:00,0,20807097,210146
OK,177,43,953,177,2014-08-01T19:15:00,0,20807546,210146
OK,177,43,953,177,2014-08-01T19:20:00,0,20807995,210146
OK,177,43,953,177,2014-08-01T19:25:00,0,20808444,210146
OK,177,43,953,177,2014-08-01T19:30:00,0,20808893,210146
OK,177,43,953,177,2014-08-01T19:35:00,0,20809342,210146
OK,177,43,953,177,2014-08-01T19:40:00,0,20809791,210146
OK,177,43,953,177,2014-08-01T19:45:00,0,20810240,210146
OK,177,43,953,177,2014-08-01T19:50:00,0,20810689,210146
OK,177,43,953,177,2014-08-01T19:55:00,0,20811138,210146
OK,177,43,953,177,2014-08-01T22:00:00,0,20816867,210146
OK,159,48,953,159,2014-08-02T00:00:00,0,20823306,210146
OK,159,48,953,159,2014-08-02T00:05:00,0,20823755,210146
OK,159,48,953,159,2014-08-02T00:10:00,0,20824204,210146
OK,159,48,953,159,2014-08-02T00:15:00,0,20824653,210146
OK,159,48,953,159,2014-08-02T00:20:00,0,20825102,210146
OK,159,48,953,159,2014-08-02T00:25:00,0,20825551,210146
OK,159,48,953,159,2014-08-02T00:30:00,0,20826000,210146
OK,159,48,953,159,2014-08-02T00:35:00,0,20826449,210146
OK,159,48,953,159,2014-08-02T00:40:00,0,20826898,210146
OK,159,48,953,159,2014-08-02T00:45:00,0,20827347,210146
OK,159,48,953,159,2014-08-02T00:50:00,0,20827796,210146
OK,159,48,953,159,2014-08-02T00:55:00,0,20828245,210146
OK,159,48,953,159,2014-08-02T01:00:00,0,20828694,210146
OK,159,48,953,159,2014-08-02T01:05:00,0,20829143,210146
OK,159,48,953,159,2014-08-02T01:10:00,0,20829592,210146
OK,159,48,953,159,2014-08-02T01:15:00,0,20830041,210146
OK,159,48,953,159,2014-08-02T01:20:00,0,20830490,210146
OK,159,48,953,159,2014-08-02T01:25:00,0,20830939,210146
OK,159,48,953,159,2014-08-02T01:30:00,0,20831388,210146
OK,159,48,953,159,2014-08-02T01:35:00,0,20831837,210146
OK,159,48,953,159,2014-08-02T01:40:00,0,20832286,210146
OK,159,48,953,159,2014-08-02T01:45:00,0,20832735,210146
OK,159,48,953,159,2014-08-02T01:50:00,0,20833184,210146
OK,159,48,953,159,2014-08-02T01:55:00,0,20833633,210146
OK,159,48,953,159,2014-08-02T02:00:00,0,20834082,210146
OK,159,48,953,159,2014-08-02T02:05:00,0,20834531,210146
OK,159,48,953,159,2014-08-02T02:10:00,0,20834980,210146
OK,159,48,953,159,2014-08-02T02:15:00,0,20835429,210146
OK,159,48,953,159,2014-08-02T02:20:00,0,20835878,210146
OK,159,48,953,159,2014-08-02T02:25:00,0,20836327,210146
OK,159,48,953,159,2014-08-02T02:30:00,0,20836776,210146
OK,159,48,953,159,2014-08-02T02:35:00,0,20837225,210146
OK,159,48,953,159,2014-08-02T02:40:00,0,20837674,210146
OK,159,48,953,159,2014-08-02T02:45:00,0,20838123,210146
OK,159,48,953,159,2014-08-02T02:50:00,0,20838572,210146
OK,159,48,953,159,2014-08-02T02:55:00,0,20839021,210146
OK,159,48,953,159,2014-08-02T03:00:00,0,20839470,210146
OK,159,48,953,159,2014-08-02T03:05:00,0,20839919,210146
OK,159,48,953,159,2014-08-02T03:10:00,0,20840368,210146
OK,159,48,953,159,2014-08-02T03:15:00,0,20840817,210146
OK,159,48,953,159,2014-08-02T03:20:00,0,20841266,210146
OK,159,48,953,159,2014-08-02T03:25:00,0,20841715,210146
OK,159,48,953,159,2014-08-02T03:30:00,0,20842164,210146
OK,159,48,953,159,2014-08-02T03:35:00,0,20842613,210146
OK,159,48,953,159,2014-08-02T03:40:00,0,20843062,210146
OK,159,48,953,159,2014-08-02T03:45:00,0,20843511,210146
OK,159,48,953,159,2014-08-02T03:50:00,0,20843960,210146
OK,159,48,953,159,2014-08-02T03:55:00,0,20844409,210146
OK,136,56,953,136,2014-08-02T06:00:00,0,20851863,210146
OK,136,56,953,136,2014-08-02T06:05:00,0,20852312,210146
OK,136,56,953,136,2014-08-02T06:10:00,0,20852761,210146
OK,136,56,953,136,2014-08-02T06:15:00,0,20853210,210146
OK,136,56,953,136,2014-08-02T06:20:00,0,20853659,210146
OK,136,56,953,136,2014-08-02T06:25:00,0,20854108,210146
OK,136,56,953,136,2014-08-02T06:30:00,0,20854557,210146
OK,136,56,953,136,2014-08-02T06:35:00,0,20855006,210146
OK,178,42,953,178,2014-08-02T06:40:00,1,20855455,210146
OK,178,42,953,178,2014-08-02T06:45:00,1,20855904,210146
OK,178,42,953,178,2014-08-02T06:50:00,0,20856353,210146
OK,178,42,953,178,2014-08-02T06:55:00,0,20856802,210146
OK,178,42,953,178,2014-08-02T07:00:00,0,20857251,210146
OK,178,42,953,178,2014-08-02T07:05:00,0,20857700,210146
OK,178,42,953,178,2014-08-02T07:10:00,0,20858149,210146
OK,178,42,953,178,2014-08-02T07:15:00,0,20858598,210146
OK,178,42,953,178,2014-08-02T07:20:00,0,20859047,210146
OK,178,42,953,178,2014-08-02T07:25:00,0,20859496,210146
OK,178,42,953,178,2014-08-02T07:30:00,0,20859945,210146
OK,178,42,953,178,2014-08-02T07:35:00,0,20860394,210146
OK,178,42,953,178,2014-08-02T07:40:00,0,20860843,210146
OK,178,42,953,178,2014-08-02T07:45:00,0,20861292,210146
OK,178,42,953,178,2014-08-02T07:50:00,0,20861741,210146
OK,178,42,953,178,2014-08-02T07:55:00,0,20862190,210146
OK,178,42,953,178,2014-08-02T08:00:00,0,20862639,210146
OK,178,42,953,178,2014-08-02T08:05:00,0,20863088,210146
OK,225,33,953,225,2014-08-02T08:10:00,1,20863537,210146
OK,225,33,953,225,2014-08-02T08:15:00,0,20863986,210146
OK,155,49,953,155,2014-08-02T08:20:00,1,20864435,210146
OK,173,44,953,173,2014-08-02T08:25:00,2,20864884,210146
OK,191,39,953,191,2014-08-02T08:30:00,0,20865333,210146
OK,191,39,953,191,2014-08-02T08:35:00,0,20865782,210146
OK,191,39,953,191,2014-08-02T08:40:00,0,20866231,210146
OK,191,39,953,191,2014-08-02T08:45:00,0,20866680,210146
OK,191,39,953,191,2014-08-02T08:50:00,0,20867129,210146
OK,191,39,953,191,2014-08-02T08:55:00,0,20867578,210146
OK,191,39,953,191,2014-08-02T09:00:00,0,20868027,210146
OK,191,39,953,191,2014-08-02T09:05:00,0,20868476,210146
OK,191,39,953,191,2014-08-02T09:10:00,0,20868925,210146
OK,191,39,953,191,2014-08-02T09:15:00,0,20869374,210146
OK,191,39,953,191,2014-08-02T09:20:00,0,20869823,210146
OK,191,39,953,191,2014-08-02T09:25:00,0,20870272,210146
OK,191,39,953,191,2014-08-02T09:30:00,0,20870721,210146
OK,191,39,953,191,2014-08-02T09:35:00,0,20871170,210146
OK,191,39,953,191,2014-08-02T09:40:00,0,20871619,210146
OK,191,39,953,191,2014-08-02T09:45:00,0,20872068,210146
OK,191,39,953,191,2014-08-02T09:50:00,0,20872517,210146
OK,191,39,953,191,2014-08-02T09:55:00,0,20872966,210146
OK,191,39,953,191,2014-08-02T10:00:00,0,20873415,210146
OK,234,32,953,234,2014-08-02T10:05:00,1,20873864,210146
OK,234,32,953,234,2014-08-02T10:10:00,1,20874313,210146
OK,234,32,953,234,2014-08-02T10:15:00,0,20874762,210146
OK,234,32,953,234,2014-08-02T10:20:00,0,20875211,210146
OK,210,36,953,210,2014-08-02T10:25:00,1,20875660,210146
OK,210,36,953,210,2014-08-02T10:30:00,1,20876109,210146
OK,210,36,953,210,2014-08-02T10:35:00,0,20876558,210146
OK,174,43,953,174,2014-08-02T10:40:00,1,20877007,210146
OK,174,43,953,174,2014-08-02T10:45:00,1,20877456,210146
OK,174,43,953,174,2014-08-02T10:50:00,0,20877905,210146
OK,128,59,953,128,2014-08-02T10:55:00,1,20878354,210146
OK,141,54,953,141,2014-08-02T11:00:00,2,20878803,210146
OK,141,54,953,141,2014-08-02T11:05:00,2,20879252,210146
OK,141,54,953,141,2014-08-02T11:10:00,0,20879701,210146
OK,141,54,953,141,2014-08-02T11:15:00,0,20880150,210146
OK,141,54,953,141,2014-08-02T11:20:00,0,20880599,210146
OK,141,54,953,141,2014-08-02T11:25:00,0,20881048,210146
OK,156,48,953,156,2014-08-02T11:30:00,1,20881497,210146
OK,156,48,953,156,2014-08-02T11:35:00,1,20881946,210146
OK,156,48,953,156,2014-08-02T11:40:00,0,20882395,210146
OK,156,48,953,156,2014-08-02T11:45:00,0,20882844,210146
OK,156,48,953,156,2014-08-02T11:50:00,0,20883293,210146
OK,156,48,953,156,2014-08-02T11:55:00,0,20883742,210146
OK,156,48,953,156,2014-08-02T12:00:00,0,20884191,210146
OK,156,48,953,156,2014-08-02T12:05:00,0,20884640,210146
OK,156,48,953,156,2014-08-02T12:10:00,0,20885089,210146
OK,156,48,953,156,2014-08-02T12:15:00,0,20885538,210146
OK,156,48,953,156,2014-08-02T12:20:00,0,20885987,210146
OK,156,48,953,156,2014-08-02T12:25:00,0,20886436,210146
OK,156,48,953,156,2014-08-02T12:30:00,0,20886885,210146
OK,156,48,953,156,2014-08-02T12:35:00,0,20887334,210146
OK,156,48,953,156,2014-08-02T12:40:00,0,20887783,210146
OK,156,48,953,156,2014-08-02T12:45:00,0,20888232,210146
OK,156,48,953,156,2014-08-02T12:50:00,0,20888681,210146
OK,156,48,953,156,2014-08-02T12:55:00,0,20889130,210146
OK,156,48,953,156,2014-08-02T13:00:00,0,20889579,210146
OK,156,48,953,156,2014-08-02T13:05:00,0,20890028,210146
OK,156,48,953,156,2014-08-02T13:10:00,0,20890477,210146
OK,156,48,953,156,2014-08-02T13:15:00,0,20890926,210146
OK,156,48,953,156,2014-08-02T13:20:00,0,20891375,210146
OK,156,48,953,156,2014-08-02T13:25:00,0,20891824,210146
OK,156,48,953,156,2014-08-02T13:30:00,0,20892273,210146
OK,156,48,953,156,2014-08-02T13:35:00,0,20892722,210146
OK,156,48,953,156,2014-08-02T13:40:00,0,20893171,210146
OK,156,48,953,156,2014-08-02T13:45:00,0,20893620,210146
OK,156,48,953,156,2014-08-02T13:50:00,0,20894069,210146
OK,156,48,953,156,2014-08-02T13:55:00,0,20894518,210146
OK,156,48,953,156,2014-08-02T14:00:00,0,20894967,210146
OK,266,28,953,266,2014-08-02T14:05:00,1,20895416,210146
OK,266,28,953,266,2014-08-02T14:10:00,0,20895865,210146
OK,266,28,953,266,2014-08-02T14:15:00,0,20896314,210146
OK,266,28,953,266,2014-08-02T14:20:00,0,20896763,210146
OK,266,28,953,266,2014-08-02T14:25:00,0,20897212,210146
OK,266,28,953,266,2014-08-02T14:30:00,0,20897661,210146
OK,266,28,953,266,2014-08-02T14:35:00,0,20898110,210146
OK,266,28,953,266,2014-08-02T14:40:00,0,20898559,210146
OK,228,33,953,228,2014-08-02T14:45:00,1,20899008,210146
OK,228,33,953,228,2014-08-02T14:50:00,0,20899457,210146
OK,228,33,953,228,2014-08-02T14:55:00,0,20899906,210146
OK,228,33,953,228,2014-08-02T15:00:00,0,20900355,210146
OK,228,33,953,228,2014-08-02T15:05:00,0,20900804,210146
OK,228,33,953,228,2014-08-02T15:10:00,0,20901253,210146
OK,228,33,953,228,2014-08-02T15:15:00,0,20901702,210146
OK,228,33,953,228,2014-08-02T15:20:00,0,20902151,210146
OK,158,48,953,158,2014-08-02T15:25:00,1,20902600,210146
OK,148,51,953,148,2014-08-02T15:30:00,2,20903049,210146
OK,177,43,953,177,2014-08-02T15:35:00,2,20903498,210146
OK,215,35,953,215,2014-08-02T15:40:00,0,20903947,210146
OK,215,35,953,215,2014-08-02T15:45:00,0,20904396,210146
OK,215,35,953,215,2014-08-02T15:50:00,0,20904845,210146
OK,215,35,953,215,2014-08-02T15:55:00,0,20905294,210146
OK,215,35,953,215,2014-08-02T16:00:00,0,20905743,210146
OK,215,35,953,215,2014-08-02T16:05:00,0,20906192,210146
OK,215,35,953,215,2014-08-02T16:10:00,0,20906641,210146
OK,215,35,953,215,2014-08-02T16:15:00,0,20907090,210146
OK,215,35,953,215,2014-08-02T16:20:00,0,20907539,210146
OK,215,35,953,215,2014-08-02T16:25:00,0,20907988,210146
OK,215,35,953,215,2014-08-02T16:30:00,0,20908437,210146
OK,215,35,953,215,2014-08-02T16:35:00,0,20908886,210146
OK,215,35,953,215,2014-08-02T16:40:00,0,20909335,210146
OK,215,35,953,215,2014-08-02T16:45:00,0,20909784,210146
OK,215,35,953,215,2014-08-02T16:50:00,0,20910233,210146
OK,215,35,953,215,2014-08-02T16:55:00,0,20910682,210146
OK,215,35,953,215,2014-08-02T17:00:00,0,20911131,210146
OK,215,35,953,215,2014-08-02T17:05:00,0,20911580,210146
OK,215,35,953,215,2014-08-02T17:10:00,0,20912029,210146
OK,215,35,953,215,2014-08-02T17:15:00,0,20912478,210146
OK,215,35,953,215,2014-08-02T17:20:00,0,20912927,210146
OK,215,35,953,215,2014-08-02T17:25:00,0,20913376,210146
OK,215,35,953,215,2014-08-02T17:30:00,0,20913825,210146
OK,215,35,953,215,2014-08-02T17:35:00,0,20914274,210146
OK,215,35,953,215,2014-08-02T17:40:00,0,20914723,210146
OK,215,35,953,215,2014-08-02T17:45:00,0,20915172,210146
OK,215,35,953,215,2014-08-02T17:50:00,0,20915621,210146
OK,215,35,953,215,2014-08-02T17:55:00,0,20916070,210146
OK,215,35,953,215,2014-08-02T18:00:00,0,20916519,210146
OK,215,35,953,215,2014-08-02T18:05:00,0,20916968,210146
OK,216,35,953,216,2014-08-02T18:10:00,1,20917417,210146
OK,216,35,953,216,2014-08-02T18:15:00,1,20917866,210146
OK,216,35,953,216,2014-08-02T18:20:00,0,20918315,210146
OK,216,35,953,216,2014-08-02T18:25:00,0,20918764,210146
OK,216,35,953,216,2014-08-02T18:30:00,0,20919213,210146
OK,301,25,953,301,2014-08-02T18:35:00,1,20919662,210146
OK,301,25,953,301,2014-08-02T18:40:00,1,20920111,210146
OK,301,25,953,301,2014-08-02T18:45:00,0,20920560,210146
OK,301,25,953,301,2014-08-02T18:50:00,0,20921009,210146
OK,301,25,953,301,2014-08-02T18:55:00,0,20921458,210146
OK,301,25,953,301,2014-08-02T19:00:00,0,20921907,210146
OK,301,25,953,301,2014-08-02T19:05:00,0,20922356,210146
OK,301,25,953,301,2014-08-02T19:10:00,0,20922805,210146
OK,153,49,953,153,2014-08-02T19:15:00,1,20923254,210146
OK,153,49,953,153,2014-08-02T19:20:00,1,20923703,210146
OK,153,49,953,153,2014-08-02T19:25:00,0,20924152,210146
OK,153,49,953,153,2014-08-02T19:30:00,0,20924601,210146
OK,153,49,953,153,2014-08-02T19:35:00,0,20925050,210146
OK,153,49,953,153,2014-08-02T19:40:00,0,20925499,210146
OK,90,84,953,90,2014-08-02T19:45:00,1,20925948,210146
OK,90,84,953,90,2014-08-02T19:50:00,0,20926397,210146
OK,90,84,953,90,2014-08-02T19:55:00,0,20926846,210146
OK,90,84,953,90,2014-08-02T20:00:00,0,20927295,210146
OK,90,84,953,90,2014-08-02T20:05:00,0,20927744,210146
OK,90,84,953,90,2014-08-02T20:10:00,0,20928193,210146
OK,90,84,953,90,2014-08-02T20:15:00,0,20928642,210146
OK,90,84,953,90,2014-08-02T20:20:00,0,20929091,210146
OK,90,84,953,90,2014-08-02T20:25:00,0,20929540,210146
OK,90,84,953,90,2014-08-02T20:30:00,0,20929989,210146
OK,90,84,953,90,2014-08-02T20:35:00,0,20930438,210146
OK,90,84,953,90,2014-08-02T20:40:00,0,20930887,210146
OK,90,84,953,90,2014-08-02T20:45:00,0,20931336,210146
OK,90,84,953,90,2014-08-02T20:50:00,0,20931785,210146
OK,165,46,953,165,2014-08-02T20:55:00,1,20932234,210146
OK,165,46,953,165,2014-08-02T21:00:00,1,20932683,210146
OK,228,33,953,228,2014-08-02T21:05:00,1,20933132,210146
OK,228,33,953,228,2014-08-02T21:10:00,0,20933581,210146
OK,228,33,953,228,2014-08-02T21:15:00,0,20934030,210146
OK,228,33,953,228,2014-08-02T21:20:00,0,20934479,210146
OK,228,33,953,228,2014-08-02T21:25:00,0,20934928,210146
OK,228,33,953,228,2014-08-02T21:30:00,0,20935377,210146
OK,228,33,953,228,2014-08-02T21:35:00,0,20935826,210146
OK,228,33,953,228,2014-08-02T21:40:00,0,20936275,210146
OK,228,33,953,228,2014-08-02T21:45:00,0,20936724,210146
OK,228,33,953,228,2014-08-02T21:50:00,0,20937173,210146
OK,228,33,953,228,2014-08-02T21:55:00,0,20937622,210146
OK,228,33,953,228,2014-08-02T22:00:00,0,20938071,210146
OK,228,33,953,228,2014-08-02T22:05:00,0,20938520,210146
OK,228,33,953,228,2014-08-02T22:10:00,0,20938969,210146
OK,228,33,953,228,2014-08-02T22:15:00,0,20939418,210146
OK,228,33,953,228,2014-08-02T22:20:00,0,20939867,210146
OK,228,33,953,228,2014-08-02T22:25:00,0,20940316,210146
OK,228,33,953,228,2014-08-02T22:30:00,0,20940765,210146
OK,228,33,953,228,2014-08-02T22:35:00,0,20941214,210146
OK,228,33,953,228,2014-08-02T22:40:00,0,20941663,210146
OK,228,33,953,228,2014-08-02T22:45:00,0,20942112,210146
OK,228,33,953,228,2014-08-02T22:50:00,0,20942561,210146
OK,228,33,953,228,2014-08-02T22:55:00,0,20943010,210146
OK,228,33,953,228,2014-08-02T23:00:00,0,20943459,210146
OK,228,33,953,228,2014-08-02T23:10:00,0,20943908,210146
OK,228,33,953,228,2014-08-02T23:15:00,0,20944357,210146
OK,228,33,953,228,2014-08-02T23:20:00,0,20944806,210146
OK,228,33,953,228,2014-08-02T23:25:00,0,20945255,210146
OK,228,33,953,228,2014-08-02T23:30:00,0,20945704,210146
OK,228,33,953,228,2014-08-02T23:35:00,0,20946153,210146
OK,228,33,953,228,2014-08-02T23:40:00,0,20946602,210146
OK,228,33,953,228,2014-08-02T23:45:00,0,20947051,210146
OK,228,33,953,228,2014-08-02T23:50:00,0,20947500,210146
OK,228,33,953,228,2014-08-02T23:55:00,0,20947949,210146
OK,228,33,953,228,2014-08-03T00:00:00,0,20948398,210146
OK,228,33,953,228,2014-08-03T00:05:00,0,20948847,210146
OK,228,33,953,228,2014-08-03T00:10:00,0,20949295,210146
OK,228,33,953,228,2014-08-03T00:15:00,0,20949744,210146
OK,228,33,953,228,2014-08-03T00:20:00,0,20950193,210146
OK,228,33,953,228,2014-08-03T00:25:00,0,20950642,210146
OK,228,33,953,228,2014-08-03T00:30:00,0,20951091,210146
OK,228,33,953,228,2014-08-03T00:35:00,0,20951540,210146
OK,228,33,953,228,2014-08-03T00:40:00,0,20951989,210146
OK,228,33,953,228,2014-08-03T00:45:00,0,20952438,210146
OK,228,33,953,228,2014-08-03T00:50:00,0,20952887,210146
OK,228,33,953,228,2014-08-03T00:55:00,0,20953336,210146
OK,228,33,953,228,2014-08-03T01:00:00,0,20953785,210146
OK,228,33,953,228,2014-08-03T01:05:00,0,20954234,210146